KUIPER-00221

导读 | 豆包AI

KUIPER-00221是美国亚马逊(原柯伊伯项目,现更名为Amazon Leo)低轨卫星互联网星座中的一颗通信卫星,于2025年12月15日发射入轨。该星座旨在为全球网络覆盖不足区域提供高速低延迟卫星互联网服务,一期计划组网3232颗卫星,KUIPER-00221的成功发射,推动星座组网进程,助力亚马逊抢占全球低轨卫星互联网市场。

基本信息
目录编号:
67147
目录名称:
KUIPER-00221
国际标识:
2025-301Q
轨道中心:
EARTH
卫星名称:
KUIPER-00221
卫星全名:
KUIPER-00221
卫星状态:
在轨 (已飞行78 天)
发射日期:
2025-12-15 UTC
国别 :
美国 (US)
星等 :
--
轨道信息
数据来源 国际轨道数据
星历时间: 2026-03-02T20:26:32+0800
15小时前
查看轨道信息
半长轴: 7007.645km
偏心率: 0.0000541
轨道倾角: 51.901°
近地点辐角 100.985°
升交点赤经 112.318°
平近点角 259.117°
近地点: 629.128km
远地点: 629.888km
周期: 97.301分钟
每日圈数: 14.79942
详细信息
使用方式:
暂无
2D轨道图
3D轨道图
轨道高度分析图
轨道倾角分析图
轨道综合分析图
查看轨道综合分析图